Location: The Jewett Observatory
(46.7288°N, 117.1525°W)
Time: 15:23:09
(UTC-07:00)

Meteor 1-28 Rocket - Visible Passes

Search period start: 25 September 2017 00:00
Search period end: 05 October 2017 00:00
Orbit: 506 x 524 km, 97.2° (Epoch: 25 September)

Date Brightness Start Highest point End Pass type
(mag) Time Alt. Az. Time Alt. Az. Time Alt. Az.
25 Sep 5.3 04:57:25 10° SE 05:00:40 29° ENE 05:03:59 10° N visible
25 Sep 6.0 19:33:56 10° NNW 19:37:00 23° WNW 19:40:04 10° WSW visible
26 Sep 6.0 04:43:03 10° ESE 04:45:53 21° ENE 04:48:45 10° NNE visible
26 Sep 5.3 19:18:44 10° N 19:22:11 33° WNW 19:25:38 10° SW visible
27 Sep 6.4 04:28:55 10° E 04:31:06 15° ENE 04:33:19 10° NNE visible
27 Sep 3.4 06:01:11 10° S 06:04:48 48° W 06:08:30 10° NNW visible
27 Sep 4.4 19:03:39 10° N 19:07:21 48° WNW 19:11:02 10° SSW visible
28 Sep 6.8 04:15:24 10° ENE 04:16:23 11° ENE 04:17:20 10° NE visible
28 Sep 3.1 05:46:08 10° S 05:49:52 74° WSW 05:53:40 10° NNW visible
29 Sep 3.4 05:31:14 10° SSE 05:34:58 74° ENE 05:38:45 10° N visible
29 Sep 6.8 20:10:05 10° NW 20:11:05 11° WNW 20:12:04 10° WNW visible
30 Sep 4.2 05:16:28 10° SSE 05:20:05 49° ENE 05:23:46 10° N visible
30 Sep 6.5 19:54:06 10° NNW 19:56:20 15° WNW 19:58:34 10° W visible
01 Oct 5.0 05:01:51 10° SE 05:05:15 33° ENE 05:08:41 10° N visible
01 Oct 6.1 19:38:40 10° NNW 19:41:34 21° WNW 19:44:27 10° WSW visible
02 Oct 5.7 04:47:24 10° ESE 04:50:26 24° ENE 04:53:30 10° NNE visible
02 Oct 5.5 19:23:26 10° N 19:26:46 29° WNW 19:30:05 10° SW visible
03 Oct 6.2 04:33:09 10° ESE 04:35:39 17° ENE 04:38:10 10° NNE visible
03 Oct 3.6 06:05:51 10° S 06:09:25 42° W 06:13:03 10° NNW visible
03 Oct 4.7 19:08:19 10° N 19:11:56 41° WNW 19:15:32 10° SW visible
04 Oct 6.6 04:19:18 10° E 04:20:54 12° ENE 04:22:30 10° NE visible
04 Oct 3.1 05:50:44 10° S 05:54:28 64° W 05:58:15 10° NNW visible
04 Oct 3.9 18:53:17 10° N 18:57:04 62° WNW 19:00:50 10° SSW visible
